Location: Rancho Del Sol Observatory
(38.7214°N, 120.6350°W)
Time: 04:01:46
(UTC-07:00)

Daily predictions for brighter satellites

Satellite Brightness Start Highest point End
(mag) Time Altitude Azimuth Time Altitude Azimuth Time Altitude Azimuth
CZ-4C R/B 4.4 03:25:40 29° NE 03:26:09 29° NE 03:32:46 10° E
Cosmos 2369 Rocket 4.2 04:10:48 20° NNE 04:10:48 20° NNE 04:12:30 10° NNE
SJ 16-02 4.2 04:46:38 10° SE 04:49:15 16° E 04:51:53 10° ENE
OAO 2 Rocket 4.1 04:51:42 45° SE 04:51:42 45° SE 04:55:26 10° ESE
Cosmos 1656 Rocket 3.9 04:51:02 59° SSE 04:51:53 68° ESE 04:57:32 10° NNE
NOSS 3-1 (C) 3.8 04:57:54 35° S 05:00:09 56° ESE 05:06:14 10° NE
Lacrosse 5 4.0 05:01:40 14° N 05:01:40 14° N 05:03:33 10° NNE
USA 229 DEB 3.5 05:00:37 65° W 05:01:23 71° NW 05:08:18 10° NNE
USA 229 3.5 05:00:40 65° W 05:01:28 72° NW 05:08:24 10° NNE
Tiangong 2 3.6 05:05:12 23° E 05:05:12 23° E 05:06:36 10° E
NOSS 3-1 (A) 4.4 05:01:34 16° S 05:05:49 43° ESE 05:11:39 10° NE
Cosmos 1943 Rocket 3.2 05:11:02 30° NNW 05:11:02 30° NNW 05:14:27 10° N
CZ-3 R/B 4.0 05:00:06 33° W 05:12:10 49° SSW 05:21:44 10° SE
CZ-4B R/B 3.5 05:06:57 10° NNE 05:12:24 68° ESE 05:17:56 10° S
Nadezhda 1 Rocket 4.0 05:12:06 51° SW 05:13:25 61° W 05:19:43 10° N
CZ-4C R/B 2.8 05:10:58 27° NW 05:15:21 74° WSW 05:23:22 10° SSE
ADEOS II 2.9 05:10:52 10° N 05:14:20 36° NNW 05:14:20 36° NNW
USA 267 3.4 05:09:37 10° SSE 05:15:54 50° SW 05:16:50 47° WSW
Cosmos 44 3.7 05:17:43 44° S 05:17:43 44° S 05:21:17 10° SSE
Kosmos-1675 4.4 05:17:09 53° W 05:17:57 59° NW 05:33:04 10° NNE
Milstar 3 3.6 05:16:48 30° SSW 05:18:30 35° S 05:25:16 10° ESE
Meteor PRIRODA 4.1 05:17:58 10° NNE 05:21:42 60° E 05:23:48 24° S
Okean O Rocket 1.4 05:17:44 10° N 05:22:08 75° WNW 05:22:26 72° WSW
Shenzhou-11 Module 3.7 05:26:13 28° SE 05:26:13 28° SE 05:27:53 10° SE
Cosmos 2150 Rocket 4.4 05:27:10 42° NW 05:27:10 42° NW 05:31:48 10° N
CZ-2C R/B 4.5 05:24:27 10° SSE 05:29:06 56° ENE 05:33:43 10° N
Cosmos 1937 Rocket 4.3 05:31:03 34° NW 05:31:03 34° NW 05:35:11 10° N
Cosmos 1758 Rocket 3.6 05:32:45 54° WSW 05:33:10 57° W 05:37:37 10° N
IRS-1C Rocket 4.0 05:29:11 10° NNE 05:34:29 86° WNW 05:39:45 10° SSW
Okean-O 4.4 05:31:44 10° NNE 05:35:46 34° E 05:39:48 10° SSE
Cosmos-2242 3.2 05:31:30 10° N 05:35:47 72° E 05:40:05 10° SSE
Cosmos 44 Rocket 3.8 05:38:36 38° WSW 05:38:36 38° WSW 05:42:52 10° S
Cosmos 1125 Rocket 3.7 05:34:07 10° S 05:39:20 73° ESE 05:44:37 10° NNE
ERBS 4.4 05:38:41 15° N 05:40:42 25° NE 05:43:36 10° E
Meteor 1-24 Rocket 4.3 05:39:59 10° S 05:45:56 65° E 05:51:49 10° NNE
Cosmos 2154 Rocket 4.2 05:41:02 10° NNW 05:47:04 48° W 05:53:04 10° SSW
COSMO-SKYMED 1 4.0 05:47:09 10° SE 05:51:11 39° ENE 05:55:14 10° N
MTI 4.4 05:48:38 10° SSE 05:51:49 58° ENE 05:55:02 10° N
Cosmos 2369 Rocket 4.2 05:52:37 11° NW 05:52:37 11° NW 05:53:47 10° NNW
Meteor 1-31 Rocket 2.6 05:48:38 10° N 05:52:24 62° WNW 05:56:09 10° SSW
Cosmos 2227 Rocket 4.0 05:49:06 10° N 05:54:08 31° ENE 05:59:07 10° ESE
SL-8 Rocket 4.0 05:53:12 10° N 05:59:34 88° W 06:05:53 10° S
Cosmos 1707 3.9 06:01:41 25° WNW 06:01:41 25° WNW 06:04:23 10° NNW
Cosmos 1842 Rocket 4.0 06:03:24 10° N 06:07:45 64° E 06:12:02 10° SSE
Meteor 2-21 4.4 06:02:12 10° NNW 06:08:07 59° W 06:14:05 10° S
Cosmos 1048 Rocket 3.9 06:05:39 10° NNW 06:10:52 83° WSW 06:16:06 10° SSE
GPS 2-04 Rocket1 4.0 06:16:07 17° WSW 06:18:05 25° SSW 06:21:06 10° SE
Cosmos 2219 3.2 06:14:44 10° NNW 06:20:18 58° WSW 06:25:48 10° S
Cosmos 1908 4.5 06:17:26 10° N 06:21:08 44° E 06:24:48 10° SSE
CZ-2C R/B 3.7 06:17:44 10° NNE 06:22:31 47° E 06:27:24 10° S
EO 1 Del DPAF 3.2 06:19:16 10° S 06:23:03 61° W 06:26:51 10° NNW
Cosmos 2218 Rocket 4.0 06:18:20 10° NNW 06:24:32 67° W 06:30:46 10° S
Meteor 2-5 Rocket 4.3 06:19:39 10° SW 06:25:04 37° WNW 06:30:27 10° N
SJ 16-02 1.7 06:23:18 10° SW 06:27:27 41° WNW 06:31:38 10° N
Cosmos 158 Rocket 4.3 06:23:05 10° NNW 06:28:16 47° WSW 06:33:23 10° S
MINOTAUR R/B 4.1 06:28:12 10° NNW 06:30:51 83° WSW 06:33:29 10° SSE
Cosmos 2297 Rocket 3.1 06:26:41 10° NNW 06:32:12 52° ENE 06:37:41 10° SE
Meteor 2-8 Rocket 4.5 06:26:15 10° S 06:32:24 85° W 06:38:34 10° N
OAO 2 Rocket 4.1 06:30:40 12° W 06:35:00 40° SSW 06:39:37 10° SE
Meteor 2-1 Rocket 4.3 06:30:01 10° NNW 06:35:56 74° W 06:41:43 10° S
SKYMED 2 3.6 06:34:54 10° S 06:39:10 57° W 06:43:27 10° NNW
Cosmos 2082 4.4 06:33:39 10° NNW 06:39:15 58° ENE 06:44:46 10° SE
Tiangong 2 2.2 06:37:32 11° W 06:40:11 30° SSW 06:43:02 10° SSE
Cosmos 1656 4.3 06:34:45 10° S 06:40:22 65° ESE 06:46:01 10° NNE
In-Cosmos 22 4.4 06:36:33 10° SSW 06:41:56 48° WNW 06:47:27 10° N
Cosmos 1697 Rocket 4.1 06:36:53 10° S 06:42:12 44° ESE 06:47:33 10° NE
Cosmos 1356 4.4 06:40:47 10° SW 06:43:46 26° WNW 06:46:46 10° NNW
ATLAS 2AS CENTAUR R/B 4.3 06:37:36 10° S 06:44:44 46° ESE 06:52:19 10° NE
Nadezhda 3 Rocket 4.2 06:38:34 10° S 06:44:54 80° E 06:51:13 10° N
Cosmos 1076 Rocket 4.1 06:45:35 10° S 06:49:53 65° E 06:54:12 10° NNE
NOSS 3-1 (C) 4.5 06:46:32 10° W 06:51:25 27° NW 06:56:50 10° NNE
